Flag for China Weather past 2 weeks in Suzhou, China

Now
57 °F

Passing clouds.


Feels Like: 57 °F
Forecast: 50 / 66 °F
Wind: 3 mph from East

Location: Shanghai Hongqiao Airport


UV Index: 0 (Low)

Visibility: N/A


Pressure: 30.04 "Hg

Humidity: 77%

Dew point: 50 °F

Location of SuzhouLocation

Historic Weather in Suzhou

°F

Suzhou temperature yesterday

Maximum temperature yesterday: 59 °F (at 2:00 AM)
Minimum temperature yesterday: 57 °F (at 12:00 AM)
Average temperature yesterday: 58 °F

Past Weeks' High & Low Weather Summary

 TemperatureHumidityPressure
High81 °F (Apr 10, 1:00 PM)94% (Apr 12, 7:30 AM)30.33 "Hg (Apr 12, 7:30 AM)
Low45 °F (Apr 6, 5:30 AM)15% (Apr 6, 2:30 PM)29.77 "Hg (Apr 12, 3:00 PM)
Average61 °F71%30.01 "Hg
* Reported Apr 5 10:00 PM — Apr 20 10:00 PM, Suzhou, Weather by CustomWeather, © 2014

Note: Actual official high and low records may vary slightly from our data, if they occured in-between our weather recording intervals... More about our weather records

Advertising

Historic Weather Conditions — Data for Previous 24 hours

 ConditionsComfort  
Time TempWeatherWind HumidityBarometerVisibility
10:00 PM
Apr 20
57 °FPassing clouds.6 mph77%30.04 "HgN/A
9:30 PM57 °FPassing clouds.8 mph77%30.04 "HgN/A
9:00 PM57 °FPassing clouds.8 mph77%30.04 "HgN/A
8:30 PM59 °FPassing clouds.6 mph72%30.04 "HgN/A
8:00 PM59 °FClear.6 mph72%30.04 "Hg10 mi
7:30 PM59 °FClear.8 mph68%30.04 "Hg10 mi
7:00 PM59 °FClear.8 mph72%30.01 "Hg10 mi
6:30 PM59 °FClear.8 mph72%30.01 "Hg10 mi
6:00 PM59 °FPassing clouds.10 mph72%30.01 "HgN/A
5:30 PM61 °FSunny.8 mph68%30.01 "Hg10 mi
5:00 PM63 °FScattered clouds.8 mph64%30.01 "HgN/A
4:30 PM63 °FScattered clouds.8 mph64%30.01 "HgN/A
4:00 PM63 °FPartly sunny.8 mph64%30.01 "HgN/A
3:30 PM63 °FPartly sunny.8 mph64%30.01 "HgN/A
3:00 PM63 °FPartly sunny.6 mph68%30.01 "HgN/A
2:30 PM63 °FPartly sunny.6 mph68%30.01 "HgN/A
2:00 PM63 °FPartly sunny.6 mph68%30.01 "HgN/A
1:30 PM63 °FPartly sunny.6 mph68%30.04 "HgN/A
1:00 PM63 °FPartly sunny.6 mph68%30.04 "HgN/A
12:30 PM63 °FPartly sunny.6 mph68%30.04 "HgN/A
12:00 PM63 °FPartly sunny.6 mph68%30.07 "HgN/A
11:30 AM63 °FPartly sunny.6 mph68%30.07 "HgN/A
11:00 AM61 °FPartly sunny.6 mph72%30.07 "HgN/A
10:30 AM61 °FPartly sunny.6 mph72%30.07 "HgN/A
10:00 AM61 °FPartly sunny.6 mph72%30.07 "HgN/A
9:30 AM61 °FPartly sunny.8 mph72%30.04 "HgN/A
9:00 AM61 °FPartly sunny.8 mph77%30.07 "HgN/A
8:30 AM59 °FPartly sunny.8 mph77%30.07 "HgN/A
8:00 AM59 °FPartly sunny.8 mph77%30.07 "HgN/A
7:30 AM59 °FPartly sunny.3 mph82%30.04 "HgN/A
7:00 AM57 °FPartly sunny.6 mph82%30.04 "HgN/A
6:30 AM57 °FPartly sunny.1 mph82%30.04 "HgN/A
6:00 AM57 °FPartly sunny.6 mph82%30.04 "HgN/A
5:30 AM55 °FMostly cloudy.8 mph88%30.01 "HgN/A
5:00 AM55 °FMostly cloudy.8 mph88%30.01 "HgN/A
4:30 AM55 °FMostly cloudy.6 mph94%30.01 "Hg4 mi
4:00 AM55 °FMostly cloudy.6 mph94%30.01 "Hg4 mi
3:30 AM55 °FLight rain. Fog.6 mph94%30.01 "Hg2 mi
3:00 AM55 °FLight rain. Fog.6 mph94%30.01 "Hg2 mi
2:30 AM55 °FLight rain. Fog.8 mph94%30.01 "Hg2 mi
2:00 AM57 °FLight rain. Fog.6 mph88%30.01 "Hg3 mi
1:30 AM57 °FLight rain. Fog.8 mph88%30.01 "Hg3 mi
1:00 AM57 °FLight rain. Mostly cloudy.10 mph88%30.01 "Hg4 mi
12:30 AM57 °FLight rain. Fog.10 mph88%30.01 "Hg3 mi
12:00 AM57 °FLight rain. Fog.8 mph88%30.01 "Hg2 mi
11:30 PM
Apr 19
57 °FLight rain. Fog.8 mph88%30.01 "Hg2 mi
11:00 PM57 °FLight rain. Fog.8 mph88%30.04 "Hg2 mi
Weather by CustomWeather, © 2014

See weather overview